Tracking 29892 objects as of 21-Nov-2024
HD Live streaming from Space Station
objects crossing your sky now

STARLINK-2324

Track STARLINK-2324 now!
10-day predictions
STARLINK-2324 is classified as:


NORAD ID: 47869
Int'l Code: 2021-021K
Perigee: 446.2 km
Apogee: 447.6 km
Inclination: 53.0 °
Period: 93.4 minutes
Semi major axis: 6817 km
RCS: Unknown
Launch date: March 14, 2021
Source: United States (US)
Launch site: AIR FORCE EASTERN TEST RANGE (AFETR)
Your satellite tracking list
Your tracking list is empty




NASA's NSSDC Master Catalog

Two Line Element Set (TLE):
1 47869U 21021K   24326.25001157  .00760975  00000-0  16279-1 0  9998
2 47869  53.0478 223.5291 0001033 102.5648 189.0508 15.42153678204548
Source of the keplerian elements: AFSPC